Weather in Bolshiye Rymy

Russia / Kostroma Oblast     57°28′55″N   43°52′55″E
temp.,
°C
wind,
m/s
gust,
m/s
humid.,
%
clouds,
%
prec.,
mm/h
press.,
hPa
HPBL,
m
4 march, thu
thu400:00−2w4109397 0.3 1000687
03:00−3wsw5119699 0.6 998688
06:00−2sw51295100 0.5 994704
09:00−1sw51197100 1.5 990743
12:000wnw71284100 2.9 9881357
15:00−3wnw7128687 3.3 9911218
18:00−5nw51188100 0.2 995742
21:00−7nw3109199 0.3 998450
5 march, fri
fri500:00−13nw239748 0.0 99936
03:00−15wnw229748 0.0 100220
06:00−16w229857 0.0 100320
09:00−11w359771 0.1 1004234
12:00−7w369499 0.0 1004452
15:00−6w3691100 0.2 1006713
18:00−9w2397100 0.3 100754
21:00−10nnw229799 0.5 100942
6 march, sat
sat600:00−14n2397100 0.2 101165
03:00−17nw239599 0.2 101230
06:00−21nw239937 0.0 101321
09:00−18nw249648 0.0 1014199
12:00−13wnw249084 0.0 1014615
15:00−11w358892 0.1 1013870
18:00−14wsw2496100 0.1 101384
21:00−16wsw269896 0.1 1012100
7 march, sun
sun700:00−15sw259795 0.1 1011137
03:00−17ssw389883 0.1 1008159
06:00−15s5109594 0.0 1005326
09:00−11s6139497 0.3 1002681
12:00−8s61193100 0.8 998888
15:00−6s61194100 1.7 994944
18:00−6s41095100 0.8 991738
21:00−6sse3996100 1.6 989454
8 march, mon
mon800:00−6wnw1297100 1.8 988120
03:00−9nw71494100 4.1 989807
06:00−11wnw61393100 1.6 990699
09:00−11wnw61194100 2.7 992614
12:00−10wnw5994100 0.8 995631
15:00−8nw5893100 1.4 998906
18:00−10nnw4994100 0.4 1002674
21:00−12nnw399497 0.6 1005526